Flag for Canada Weather past 2 weeks in Moose Jaw, Saskatchewan, Canada

Now
50 °F

Overcast.


Feels Like: 45 °F
Forecast: 33 / 46 °F
Wind: 15 mph from Southeast

Location: Regina Weather Station

Current Time: Apr 25, 2015 at 7:18:17 PM

Latest Report: Apr 25, 2015 at 7:00 PM


Visibility: 15 mi

Pressure: 29.84 "Hg

Humidity: 71%

Dew point: 41 °F

Location of Moose JawLocation

Historic Weather in Moose Jaw — Graph

°F

Moose Jaw temperature yesterday

Maximum temperature yesterday: 59 °F (at 3:00 PM)
Minimum temperature yesterday: 32 °F (at 3:00 AM)
Average temperature yesterday: 45 °F

Past Weeks' High & Low Weather Summary

 TemperatureHumidityPressure
High70 °F (Apr 11, 1:00 PM)100% (Apr 25, 8:00 AM)30.27 "Hg (Apr 25, 8:00 AM)
Low19 °F (Apr 20, 5:00 AM)18% (Apr 13, 6:00 PM)29.40 "Hg (Apr 11, 6:00 PM)
Average45 °F54%29.92 "Hg
* Reported Apr 10 6:00 PM — Apr 25 6:00 PM, Moose Jaw, Weather by CustomWeather, © 2015

Note: Actual official high and low records may vary slightly from our data, if they occured in-between our weather recording intervals... More about our weather records

Advertising

Moose Jaw weather history for previous 24 hours

 ConditionsComfort  
Time TempWeatherWind HumidityBarometerVisibility
6:00 PM
Sat, Apr 25
48 °FOvercast.16 mph76%29.83 "Hg12 mi
5:00 PM48 °FOvercast.21 mph82%29.83 "Hg10 mi
4:00 PM46 °FOvercast.20 mph87%29.83 "Hg10 mi
3:00 PM45 °FOvercast.17 mph93%29.83 "Hg8 mi
2:00 PM46 °FFog.20 mph87%29.82 "Hg15 mi
1:46 PM46 °FFog.20 mph87%29.82 "Hg6 mi
1:00 PM46 °FFog.18 mph87%29.82 "Hg6 mi
12:00 PM46 °FSprinkles. Fog.18 mph93%29.81 "Hg4 mi
11:00 AM45 °FSprinkles. Fog.13 mph93%29.81 "Hg3 mi
10:00 AM45 °FLight rain. Fog.14 mph93%29.81 "Hg5 mi
9:00 AM45 °FFog.17 mph93%29.80 "Hg4 mi
8:00 AM43 °FLight rain. Fog.12 mph100%29.81 "Hg1 mi
7:00 AM45 °FSprinkles. Fog.20 mph93%29.78 "Hg4 mi
6:00 AM45 °FSprinkles. Overcast.17 mph87%29.76 "Hg10 mi
5:00 AM45 °FSprinkles. Overcast.16 mph87%29.77 "Hg12 mi
4:00 AM46 °FOvercast.13 mph82%29.75 "Hg15 mi
3:00 AM48 °FSprinkles. Overcast.12 mph66%29.74 "Hg15 mi
2:46 AM48 °FSprinkles. Overcast.12 mph66%29.74 "Hg15 mi
2:00 AM48 °FPassing clouds.12 mph62%29.73 "Hg15 mi
1:00 AM50 °FOvercast.12 mph58%29.73 "Hg15 mi
12:00 AM50 °FOvercast.13 mph54%29.72 "Hg15 mi
11:00 PM
Fri, Apr 24
52 °FPassing clouds.16 mph50%29.72 "Hg15 mi
10:00 PM52 °FMostly cloudy.18 mph47%29.73 "Hg15 mi
9:00 PM52 °FMostly cloudy.20 mph44%29.73 "Hg15 mi
8:00 PM52 °FMostly cloudy.17 mph47%29.72 "Hg15 mi
7:00 PM54 °FPartly sunny.20 mph41%29.72 "Hg15 mi
Weather by CustomWeather, © 2015

See weather overviewHow to use our weather pages